Location: Le Rocchette
(44.3500°N, 7.8333°E)
Time: 11:19:35
(UTC+00:00)

COSMOS 2455 - Pass Details

Date: 17 November 2019
Orbit: 902 x 908 km, 67.1° (Epoch: 07 December)

Event Time Altitude Azimuth Distance (km) Brightness Sun altitude
Exits shadow 04:40:31 18° 326° (NNW) 2,064 4.3 -18.9°
Maximum altitude 04:45:06 81° 241° (WSW) 921 2.8 -18.1°
Drops below altitude 10° 04:51:05 10° 155° (SSE) 2,579 5.7 -17.0°
Sets 04:53:34 0° 154° (SSE) 3,516 6.5 -16.6°
